Location: Arrodets-la-Barthe
(43.0306°N, 0.2829°E)
Time: 10:39:25
(UTC+00:00)

Cosmos 2278 - Pass Details

Date: 01 June 2022
Orbit: 838 x 854 km, 71.1° (Epoch: 01 July)

Event Time Altitude Azimuth Distance (km) Brightness Sun altitude
Rises 03:29:29 0° 348° (NNW) 3,427 7.3 -8.6°
Reaches altitude 10° 03:34:06 10° 22° (NNE) 2,490 7.3 -8.0°
Maximum altitude 03:35:49 11° 40° (NE) 2,397 7.7 -7.7°
Drops below altitude 10° 03:37:32 10° 58° (ENE) 2,488 7.9 -7.5°
Sets 03:42:07 0° 92° (E) 3,421 7.7 -6.8°
